Zurück zum Katalog

DELTA 1 DEB

AktivSSO
NORAD 7132·DEBRIS·🇺🇸 United States

Gestartet Nov 6, 1973 von Vandenberg Space Force Base

Loading…

Nächste Überflüge (nächste 24 Stunden)

TLE

AktuellSource: Space-Track

Epoche: Sep 14, 2026, 10:54 UTC

1 07132U 73086CW  26257.45471205  .00000049  00000-0  70185-3 0  9994
2 07132 102.2299 240.0826 0020106 188.8266 323.3302 12.41409013390766

Verfolge DELTA 1 DEB in Echtzeit mit AllMySat

Download on the App Store